WZZ416N EDDF-ELLX

Flight info

Callsign WZZ416N
Flight time 0h 27m
Altitude 16000
Route SOBRA1F/25C SOBRA Y180 BITBU/N0276F080 Z110 BETEX
Aircraft A321/M-SDE3FGHIRWY/LB1

Departure

Time 2026-05-07 09:52
Airport Frankfurt Main Airport (EDDF)

Arrival

Time 2026-05-07 10:19
Airport Luxembourg-Findel International Airport (ELLX)
Time Latitude Longitude Altitude Speed Heading
2026-05-07 09:27 50.04832 8.58835 346 ft 0 kts 339°
2026-05-07 09:46 50.04809 8.58848 360 ft 4 kts 340°
2026-05-07 09:47 50.04784 8.58864 353 ft 4 kts 334°
2026-05-07 09:47 50.04764 8.58885 356 ft 4 kts 296°
2026-05-07 09:47 50.04761 8.58901 356 ft 0 kts 249°
2026-05-07 09:49 50.04760 8.58899 356 ft 0 kts 249°
2026-05-07 09:49 50.04756 8.58881 354 ft 3 kts 249°
2026-05-07 09:50 50.04745 8.58843 351 ft 5 kts 244°
2026-05-07 09:50 50.04723 8.58790 353 ft 7 kts 229°
2026-05-07 09:50 50.04676 8.58768 346 ft 8 kts 187°
2026-05-07 09:50 50.04617 8.58753 347 ft 9 kts 201°
2026-05-07 09:51 50.04560 8.58692 350 ft 11 kts 217°
2026-05-07 09:51 50.04498 8.58615 353 ft 12 kts 227°
2026-05-07 09:51 50.04448 8.58427 350 ft 44 kts 250°
2026-05-07 09:51 50.04252 8.57598 355 ft 117 kts 249°
2026-05-07 09:52 50.03906 8.56132 452 ft 160 kts 250°
2026-05-07 09:52 50.03531 8.54569 1281 ft 152 kts 252°
2026-05-07 09:52 50.03158 8.53020 2031 ft 153 kts 253°
2026-05-07 09:52 50.02763 8.51472 2752 ft 157 kts 244°
2026-05-07 09:53 50.01924 8.50261 3153 ft 179 kts 209°
2026-05-07 09:53 50.00688 8.49535 3461 ft 201 kts 200°
2026-05-07 09:53 49.99342 8.48660 3823 ft 213 kts 216°
2026-05-07 09:53 49.98390 8.47001 4568 ft 203 kts 246°
2026-05-07 09:54 49.97983 8.44918 5251 ft 199 kts 259°
2026-05-07 09:54 49.97676 8.42863 6059 ft 191 kts 260°
2026-05-07 09:54 49.97385 8.40877 6786 ft 187 kts 260°
2026-05-07 09:54 49.97172 8.38893 7366 ft 187 kts 273°
2026-05-07 09:55 49.97211 8.36850 7894 ft 192 kts 274°
2026-05-07 09:55 49.97258 8.34731 8366 ft 200 kts 274°
2026-05-07 09:55 49.97306 8.32533 8849 ft 207 kts 274°
2026-05-07 09:55 49.97356 8.30234 9340 ft 221 kts 274°
2026-05-07 09:56 49.97408 8.27751 9829 ft 239 kts 274°
2026-05-07 09:56 49.97461 8.25072 10322 ft 258 kts 273°
2026-05-07 09:56 49.97517 8.22167 10849 ft 279 kts 273°
2026-05-07 09:56 49.97578 8.19110 11404 ft 295 kts 273°
2026-05-07 09:57 49.97640 8.15858 12106 ft 305 kts 273°
2026-05-07 09:57 49.97702 8.12528 12891 ft 312 kts 272°
2026-05-07 09:57 49.97546 8.09133 13701 ft 319 kts 265°
2026-05-07 09:57 49.97259 8.05685 14443 ft 325 kts 264°
2026-05-07 09:58 49.96945 8.02184 15182 ft 329 kts 263°
2026-05-07 09:58 49.96615 7.98629 15797 ft 337 kts 263°
2026-05-07 09:58 49.96271 7.94921 15986 ft 356 kts 263°
2026-05-07 09:58 49.95915 7.91010 16027 ft 373 kts 264°
2026-05-07 09:59 49.95552 7.86992 16028 ft 377 kts 263°
2026-05-07 09:59 49.95192 7.82998 16025 ft 379 kts 264°
2026-05-07 09:59 49.94826 7.78942 16024 ft 380 kts 264°
2026-05-07 09:59 49.94448 7.74775 16024 ft 401 kts 263°
2026-05-07 10:00 49.94051 7.70405 16024 ft 413 kts 263°
2026-05-07 10:00 49.93646 7.65972 16025 ft 416 kts 263°
2026-05-07 10:00 49.93236 7.61519 16023 ft 417 kts 263°
2026-05-07 10:00 49.92818 7.57050 16025 ft 417 kts 263°
2026-05-07 10:01 49.92398 7.52595 16024 ft 417 kts 263°
2026-05-07 10:01 49.91978 7.48141 16021 ft 418 kts 263°
2026-05-07 10:01 49.91558 7.43686 16016 ft 418 kts 263°
2026-05-07 10:01 49.91138 7.39221 16017 ft 418 kts 262°
2026-05-07 10:02 49.90724 7.34820 16016 ft 417 kts 263°
2026-05-07 10:02 49.90303 7.30375 16013 ft 417 kts 263°
2026-05-07 10:02 49.89874 7.25871 16002 ft 417 kts 262°
2026-05-07 10:02 49.89446 7.21422 16000 ft 417 kts 262°
2026-05-07 10:03 49.89014 7.16981 16000 ft 417 kts 262°
2026-05-07 10:03 49.88582 7.12538 16000 ft 417 kts 262°
2026-05-07 10:03 49.88150 7.08089 15995 ft 417 kts 262°
2026-05-07 10:03 49.87724 7.03711 15918 ft 412 kts 262°
2026-05-07 10:04 49.87303 6.99403 15721 ft 396 kts 262°
2026-05-07 10:04 49.86897 6.95272 15620 ft 379 kts 262°
2026-05-07 10:04 49.86509 6.91324 15545 ft 362 kts 262°
2026-05-07 10:04 49.86138 6.87564 15511 ft 344 kts 262°
2026-05-07 10:05 49.85780 6.83995 15489 ft 327 kts 262°
2026-05-07 10:05 49.85437 6.80574 15349 ft 316 kts 262°
2026-05-07 10:05 49.85105 6.77245 15092 ft 310 kts 262°
2026-05-07 10:05 49.84777 6.73973 14845 ft 305 kts 262°
2026-05-07 10:06 49.84452 6.70737 14600 ft 303 kts 262°
2026-05-07 10:06 49.84127 6.67510 14356 ft 302 kts 262°
2026-05-07 10:06 49.83803 6.64296 14112 ft 301 kts 262°
2026-05-07 10:06 49.83470 6.61006 13878 ft 317 kts 262°
2026-05-07 10:07 49.83125 6.57596 13616 ft 322 kts 262°
2026-05-07 10:07 49.82775 6.54167 13357 ft 322 kts 262°
2026-05-07 10:07 49.82425 6.50749 13099 ft 321 kts 262°
2026-05-07 10:07 49.82078 6.47345 12835 ft 320 kts 262°
2026-05-07 10:08 49.81794 6.43943 12568 ft 318 kts 268°
2026-05-07 10:08 49.81914 6.40542 12314 ft 316 kts 280°
2026-05-07 10:08 49.82402 6.37224 11796 ft 320 kts 284°
2026-05-07 10:08 49.82936 6.33823 10962 ft 330 kts 283°
2026-05-07 10:09 49.83481 6.30313 10134 ft 339 kts 283°
2026-05-07 10:09 49.84034 6.26723 9285 ft 346 kts 283°
2026-05-07 10:09 49.84601 6.23179 8876 ft 337 kts 288°
2026-05-07 10:09 49.85376 6.19804 8503 ft 329 kts 287°
2026-05-07 10:10 49.85577 6.16361 8198 ft 318 kts 260°
2026-05-07 10:10 49.84829 6.13306 8069 ft 296 kts 239°
2026-05-07 10:10 49.83549 6.10894 7932 ft 285 kts 221°
2026-05-07 10:10 49.81934 6.09203 7808 ft 276 kts 211°
2026-05-07 10:11 49.80315 6.07713 7671 ft 266 kts 211°
2026-05-07 10:11 49.78747 6.06272 7553 ft 263 kts 211°
2026-05-07 10:11 49.77122 6.04783 7429 ft 275 kts 211°
2026-05-07 10:11 49.75470 6.03274 7300 ft 277 kts 211°
2026-05-07 10:12 49.73813 6.01765 7182 ft 276 kts 211°
2026-05-07 10:12 49.72155 6.00255 7055 ft 276 kts 211°
2026-05-07 10:12 49.70500 5.98752 6928 ft 276 kts 211°
2026-05-07 10:12 49.68846 5.97254 6804 ft 275 kts 211°
2026-05-07 10:13 49.67224 5.95790 6594 ft 272 kts 210°
2026-05-07 10:13 49.65599 5.94321 6269 ft 269 kts 211°
2026-05-07 10:13 49.64009 5.92882 6141 ft 260 kts 210°
2026-05-07 10:13 49.62460 5.91541 6005 ft 251 kts 202°
2026-05-07 10:14 49.60798 5.90967 5804 ft 243 kts 180°
2026-05-07 10:14 49.59144 5.91399 5404 ft 245 kts 157°
2026-05-07 10:14 49.57693 5.92684 5022 ft 236 kts 147°
2026-05-07 10:14 49.56391 5.94265 4421 ft 239 kts 131°
2026-05-07 10:15 49.55554 5.96329 4209 ft 216 kts 111°
2026-05-07 10:15 49.55211 5.98470 4064 ft 200 kts 95°
2026-05-07 10:15 49.55269 6.00557 3851 ft 193 kts 79°
2026-05-07 10:15 49.55687 6.02499 3617 ft 190 kts 63°
2026-05-07 10:16 49.56338 6.04260 3375 ft 189 kts 59°
2026-05-07 10:16 49.56985 6.05986 3122 ft 188 kts 59°
2026-05-07 10:16 49.57635 6.07723 2887 ft 186 kts 59°
2026-05-07 10:16 49.58231 6.09318 2631 ft 159 kts 59°
2026-05-07 10:17 49.58762 6.10740 2416 ft 148 kts 58°
2026-05-07 10:17 49.59267 6.12091 2203 ft 145 kts 58°
2026-05-07 10:17 49.59768 6.13428 1996 ft 143 kts 57°
2026-05-07 10:17 49.60263 6.14754 1776 ft 142 kts 58°
2026-05-07 10:18 49.60752 6.16076 1608 ft 142 kts 57°
2026-05-07 10:18 49.61241 6.17390 1445 ft 140 kts 57°
2026-05-07 10:18 49.61729 6.18700 1256 ft 141 kts 57°
2026-05-07 10:18 49.62180 6.19896 1210 ft 109 kts 60°
2026-05-07 10:19 49.62468 6.20670 1213 ft 52 kts 60°
2026-05-07 10:19 49.62613 6.21029 1217 ft 31 kts 46°
2026-05-07 10:19 49.62747 6.21188 1209 ft 24 kts 18°
2026-05-07 10:19 49.62827 6.21253 1202 ft 19 kts 30°
2026-05-07 10:20 49.62931 6.21350 1198 ft 18 kts 27°
2026-05-07 10:20 49.63033 6.21506 1197 ft 14 kts 64°
2026-05-07 10:20 49.63050 6.21558 1197 ft 8 kts 62°
2026-05-07 10:20 49.63093 6.21698 1197 ft 12 kts 66°
2026-05-07 10:21 49.63114 6.21765 1198 ft 3 kts 56°
2026-05-07 10:21 49.63119 6.21773 1198 ft 0 kts 46°
2026-05-07 10:21 49.63125 6.21781 1197 ft 2 kts 37°
2026-05-07 10:21 49.63134 6.21778 1197 ft 2 kts 343°
2026-05-07 10:22 49.63158 6.21753 1197 ft 6 kts 329°
2026-05-07 10:22 49.63201 6.21714 1196 ft 0 kts 332°
2026-05-07 10:22 49.63203 6.21715 1196 ft 0 kts 345°
2026-05-07 10:22 49.63207 6.21718 1196 ft 1 kts 14°
2026-05-07 10:23 49.63214 6.21730 1196 ft 2 kts 45°
2026-05-07 10:23 49.63223 6.21743 1196 ft 0 kts 42°